Date String (YYYY-MM-DD hh:mm:ss) UTC,Instrument flags,Ambient pressure (hPa),Sample flow (lpm),Bypass flow (lpm),Sample temperature (°C),Ambient temperature (°C),ASC tube jacket temperature (°C),LED temperature (°C),Box temperature (°C),Sample RH (%),Span deviation,Mass concentration (μg/m³),Mass concentration (μg/m³),Mass concentration (μg/m³)
DateTimeUTC,F1_M11,P_M11,Q1_M11,Q2_M11,T1_M11,T2_M11,T3_M11,T4_M11,T5_M11,U1_M11,ZSPAN_M11,X0_M11,X2_M11,X1_M11
2022-01-05 07:00:00,,0824.7,5.01,0.00,22.1,21.5,00.0,31.1,23.8,10.9,0000.0,0004.18,0001.53,0001.11
2022-01-05 07:01:00,,0824.9,4.99,0.00,22.1,21.5,00.0,31.1,23.8,10.8,0000.0,0004.01,0001.47,0001.09
2022-01-05 07:02:00,,0824.8,5.01,0.00,22.1,21.5,00.0,31.1,23.8,10.8,0000.0,0003.79,0001.46,0001.08
2022-01-05 07:03:00,,0824.7,4.99,0.00,22.1,21.5,00.0,31.1,23.8,10.8,0000.0,0003.65,0001.43,0001.09
2022-01-05 07:04:00,,0824.7,5.00,0.00,22.1,21.4,00.0,31.1,23.8,10.8,0000.0,0003.68,0001.43,0001.08
2022-01-05 07:05:00,,0824.7,5.01,0.00,22.1,21.4,00.0,31.1,23.8,10.8,0000.0,0003.71,0001.44,0001.07
2022-01-05 07:06:00,,0824.7,4.99,0.00,22.1,21.4,00.0,31.1,23.8,10.8,0000.0,0003.68,0001.41,0001.05
2022-01-05 07:07:00,,0824.7,5.00,0.00,22.1,21.4,00.0,31.1,23.7,10.8,0000.0,0003.21,0001.39,0001.04
2022-01-05 07:08:00,,0824.8,5.00,0.00,22.1,21.4,00.0,31.1,23.7,10.8,0000.0,0002.21,0001.36,0001.03
2022-01-05 07:09:00,,0824.7,5.00,0.00,22.0,21.3,00.0,31.1,23.7,10.8,0000.0,0002.23,0001.37,0001.01
2022-01-05 07:10:00,,0824.6,5.01,0.00,22.0,21.3,00.0,31.1,23.7,10.8,0000.0,0002.26,0001.38,0001.02
2022-01-05 07:11:00,,0824.6,4.99,0.00,22.0,21.3,00.0,31.0,23.7,10.8,0000.0,0002.32,0001.41,0001.02
2022-01-05 07:12:00,,0824.4,5.00,0.00,22.0,21.2,00.0,31.0,23.6,10.8,0000.0,0002.90,0001.43,0001.03
2022-01-05 07:13:00,,0824.4,5.00,0.00,21.9,21.2,00.0,31.0,23.6,10.9,0000.0,0002.94,0001.43,0001.04
2022-01-05 07:14:00,,0824.4,4.99,0.00,22.0,21.8,00.0,31.0,23.8,10.8,0000.0,0002.90,0001.40,0001.02
2022-01-05 07:15:00,,0824.5,5.00,0.00,22.1,22.6,00.0,31.1,24.0,10.8,0000.0,0002.84,0001.39,0001.02
2022-01-05 07:16:00,,0824.5,5.00,0.00,22.3,22.9,00.0,31.1,24.2,10.7,0000.0,0002.82,0001.37,0001.03
2022-01-05 07:17:00,,0824.5,5.01,0.00,22.3,22.6,00.0,31.1,24.1,10.7,0000.0,0002.86,0001.39,0001.04
2022-01-05 07:18:00,,0824.5,4.99,0.00,22.3,22.3,00.0,31.1,24.0,10.7,0000.0,0002.84,0001.36,0001.05
2022-01-05 07:19:00,,0824.7,5.02,0.00,22.2,22.1,00.0,31.1,23.8,10.7,0000.0,0004.15,0001.37,0001.07
2022-01-05 07:20:00,,0824.6,5.00,0.00,22.2,21.9,00.0,31.1,23.8,10.8,0000.0,0004.17,0001.38,0001.08
2022-01-05 07:21:00,,0824.4,5.00,0.00,22.1,21.7,00.0,31.1,23.7,10.8,0000.0,0004.03,0001.34,0001.08
2022-01-05 07:22:00,,0824.4,5.01,0.00,22.0,21.5,00.0,31.1,23.6,10.8,0000.0,0004.04,0001.32,0001.09
2022-01-05 07:23:00,,0824.2,4.99,0.00,22.0,21.3,00.0,31.1,23.5,10.9,0000.0,0003.53,0001.34,0001.10
2022-01-05 07:24:00,,0824.2,5.00,0.00,21.9,21.1,00.0,31.1,23.4,11.0,0000.0,0003.40,0001.33,0001.10
2022-01-05 07:25:00,,0824.2,5.00,0.00,21.8,21.0,00.0,31.0,23.3,11.0,0000.0,0003.43,0001.35,0001.10
2022-01-05 07:26:00,,0824.4,5.01,0.00,21.8,21.0,00.0,31.0,23.2,11.1,0000.0,0003.57,0001.41,0001.12
2022-01-05 07:27:00,,0824.2,5.00,0.00,21.7,20.8,00.0,31.0,23.2,11.1,0000.0,0003.52,0001.39,0001.13
2022-01-05 07:28:00,,0824.3,5.00,0.00,21.6,20.8,00.0,30.9,23.1,11.2,0000.0,0003.54,0001.40,0001.13
2022-01-05 07:29:00,,0824.3,5.00,0.00,21.6,20.9,00.0,30.9,23.1,11.2,0000.0,0003.68,0001.40,0001.13
2022-01-05 07:30:00,,0824.3,4.99,0.00,21.7,21.6,00.0,30.9,23.4,11.2,0000.0,0002.75,0001.40,0001.12
2022-01-05 07:31:00,,0824.2,5.01,0.00,21.9,22.5,00.0,30.9,23.8,11.1,0000.0,0002.37,0001.41,0001.13
2022-01-05 07:32:00,,0824.2,5.00,0.00,22.0,22.8,00.0,31.0,23.9,11.0,0000.0,0002.54,0001.44,0001.13
2022-01-05 07:33:00,,0824.2,4.99,0.00,22.0,22.5,00.0,31.0,23.8,11.0,0000.0,0002.58,0001.49,0001.14
2022-01-05 07:34:00,,0824.1,5.00,0.00,22.0,22.2,00.0,31.0,23.7,11.0,0000.0,0002.66,0001.51,0001.13
2022-01-05 07:35:00,,0824.0,5.00,0.00,21.9,21.9,00.0,31.0,23.5,11.1,0000.0,0002.66,0001.50,0001.14
2022-01-05 07:36:00,,0824.1,4.99,0.00,21.9,21.6,00.0,31.0,23.4,11.1,0000.0,0002.74,0001.55,0001.17
2022-01-05 07:37:00,,0824.1,5.01,0.00,21.8,21.4,00.0,30.9,23.3,11.1,0000.0,0002.69,0001.53,0001.17
2022-01-05 07:38:00,,0824.1,4.99,0.00,21.7,21.2,00.0,30.9,23.2,11.2,0000.0,0002.71,0001.54,0001.18
2022-01-05 07:39:00,,0824.1,5.01,0.00,21.7,21.1,00.0,30.9,23.1,11.3,0000.0,0002.61,0001.51,0001.17
2022-01-05 07:40:00,,0824.0,5.00,0.00,21.6,21.0,00.0,30.9,23.0,11.3,0000.0,0002.46,0001.50,0001.17
2022-01-05 07:41:00,,0824.0,4.99,0.00,21.6,20.9,00.0,30.8,23.0,11.4,0000.0,0002.42,0001.51,0001.17
2022-01-05 07:42:00,,0824.0,5.01,0.00,21.5,20.8,00.0,30.8,23.0,11.4,0000.0,0002.44,0001.50,0001.16
2022-01-05 07:43:00,,0824.0,5.00,0.00,21.5,20.7,00.0,30.8,23.0,11.4,0000.0,0002.35,0001.49,0001.16
2022-01-05 07:44:00,,0824.0,4.99,0.00,21.5,21.2,00.0,30.8,23.2,11.4,0000.0,0002.24,0001.44,0001.17
2022-01-05 07:45:00,,0823.9,5.00,0.00,21.7,22.1,00.0,30.8,23.5,11.3,0000.0,0002.12,0001.41,0001.17
2022-01-05 07:46:00,,0823.8,5.01,0.00,21.8,22.7,00.0,30.8,23.8,11.2,0000.0,0002.15,0001.42,0001.17
2022-01-05 07:47:00,,0823.8,4.99,0.00,21.9,22.5,00.0,30.8,23.8,11.1,0000.0,0002.05,0001.38,0001.16
2022-01-05 07:48:00,,0823.8,5.00,0.00,21.9,22.1,00.0,30.8,23.6,11.2,0000.0,0002.01,0001.37,0001.16
2022-01-05 07:49:00,,0823.8,4.99,0.00,21.8,21.8,00.0,30.8,23.4,11.2,0000.0,0002.58,0001.37,0001.16
2022-01-05 07:50:00,,0823.8,5.01,0.00,21.8,21.6,00.0,30.8,23.3,11.2,0000.0,0003.32,0001.41,0001.17
2022-01-05 07:51:00,,0823.7,5.00,0.00,21.7,21.4,00.0,30.8,23.2,11.2,0000.0,0003.28,0001.39,0001.18
2022-01-05 07:52:00,,0823.7,4.99,0.00,21.6,21.2,00.0,30.8,23.1,11.2,0000.0,0003.26,0001.38,0001.17
2022-01-05 07:53:00,,0823.7,5.00,0.00,21.6,21.0,00.0,30.8,23.0,11.3,0000.0,0003.25,0001.38,0001.16
2022-01-05 07:54:00,,0823.7,5.01,0.00,21.5,20.9,00.0,30.7,22.9,11.4,0000.0,0003.27,0001.39,0001.16
2022-01-05 07:55:00,,0823.7,5.00,0.00,21.4,20.8,00.0,30.7,22.9,11.4,0000.0,0003.30,0001.40,0001.15
2022-01-05 07:56:00,,0823.7,5.00,0.00,21.4,20.7,00.0,30.7,22.8,11.4,0000.0,0003.34,0001.41,0001.14
2022-01-05 07:57:00,,0823.6,5.01,0.00,21.5,21.3,00.0,30.7,23.1,11.4,0000.0,0003.34,0001.41,0001.15
2022-01-05 07:58:00,,0823.7,4.99,0.00,21.6,22.2,00.0,30.7,23.5,11.2,0000.0,0003.37,0001.42,0001.14
2022-01-05 07:59:00,,0823.7,4.99,0.00,21.8,22.7,00.0,30.7,23.7,11.2,0000.0,0004.13,0001.45,0001.13
